Flag for Germany Weather past 2 weeks in Wolfsburg, Lower Saxony, Germany

Now
55 °F

Partly cloudy.


Feels Like: 51 °F
Forecast: 50 / 65 °F
Wind: 18 mph from West

Location: Celle Airport

Current Time: Jul 30, 2015 at 7:08:13 AM

Latest Report: Jul 30, 2015 at 6:20 AM


Visibility: N/A

Pressure: 29.80 "Hg

Humidity: 77%

Dew point: 48 °F

Location of WolfsburgLocation

Historic Weather in Wolfsburg — Graph

°F

Wolfsburg temperature yesterday

Maximum temperature yesterday: 64 °F (at 12:20 PM)
Minimum temperature yesterday: 52 °F (at 3:20 PM)
Average temperature yesterday: 58 °F

Past Weeks' High & Low Weather Summary

 TemperatureHumidityPressure
High90 °F (Jul 17, 3:20 PM)100% (Jul 19, 11:20 AM)30.12 "Hg (Jul 19, 11:20 AM)
Low52 °F (Jul 24, 4:20 AM)29% (Jul 17, 5:20 PM)29.47 "Hg (Jul 25, 1:20 PM)
Average65 °F72%29.84 "Hg
* Reported Jul 15 5:20 AM — Jul 30 5:20 AM, Wolfsburg, Weather by CustomWeather, © 2015

Note: Actual official high and low records may vary slightly from our data, if they occured in-between our weather recording intervals... More about our weather records

Advertising

Wolfsburg weather history for previous 24 hours

 ConditionsComfort  
Time TempWeatherWind HumidityBarometerVisibility
5:20 AM
Thu, Jul 30
55 °FPassing clouds.17 mph77%29.80 "HgN/A
4:20 AM55 °FPassing clouds.20 mph77%29.77 "HgN/A
3:20 AM57 °FPartly cloudy.18 mph72%29.77 "HgN/A
2:20 AM57 °FPassing clouds.22 mph72%29.77 "HgN/A
1:20 AM57 °FPassing clouds.21 mph72%29.77 "HgN/A
12:20 AM57 °FPartly cloudy.18 mph72%29.74 "HgN/A
11:55 PM
Wed, Jul 29
57 °FPassing clouds.24 mph72%29.74 "HgN/A
11:20 PM57 °FPassing clouds.20 mph77%29.71 "HgN/A
10:20 PM55 °FDrizzle. Mostly cloudy.21 mph82%29.74 "HgN/A
9:20 PM55 °FDrizzle. Partly sunny.20 mph82%29.71 "HgN/A
8:20 PM57 °FScattered showers. Scattered clouds.16 mph77%29.71 "HgN/A
7:20 PM57 °FScattered clouds.22 mph67%29.71 "HgN/A
6:20 PM59 °FScattered clouds.15 mph68%29.68 "HgN/A
5:20 PM63 °FScattered showers. Scattered clouds.18 mph56%29.68 "HgN/A
4:20 PM59 °FPartly sunny.13 mph72%29.68 "HgN/A
3:20 PM52 °FThundershowers. Scattered clouds.9 mph88%29.68 "HgN/A
3:01 PM63 °FStrong thunderstorms. Partly sunny.16 mph59%29.71 "Hg1 mi
2:58 PM63 °FThunderstorms. Partly sunny.17 mph59%29.68 "Hg1 mi
2:20 PM61 °FScattered clouds.13 mph68%29.68 "HgN/A
1:20 PM57 °FRain showers. Partly sunny.29 mph67%29.68 "Hg2 mi
12:20 PM64 °FScattered clouds.21 mph49%29.65 "HgN/A
11:20 AM61 °FBroken clouds.18 mph63%29.68 "HgN/A
10:20 AM59 °FBroken clouds.17 mph68%29.68 "HgN/A
9:20 AM59 °FPartly sunny.12 mph68%29.68 "HgN/A
8:20 AM57 °FPartly sunny.15 mph72%29.68 "HgN/A
7:20 AM55 °FScattered clouds.15 mph72%29.68 "HgN/A
Weather by CustomWeather, © 2015

See weather overviewHow to use our weather pages